Dewpoint
42 41 40 39 39 41 37 37 13 44 49 32 37 26 36 35 30 32 30 36 35 25 32 29 22 16 13 18 21 21 23 22 17 17 22 23 22 22 27 21 20 25 21 17
43 41 39 39 39 41 36 33 34 41 45 30 31 32 30 31 31 25 25 34 32 33 31 31 30 24 23 22 20 17 25 22 17 18 20 21 21 23 27 28 28 24 20 20
43 41 39 39 39 39 37 34 26 31 42 39 35 33 31 25 31 21 27 26 24 26 32 33 31 30 26 25 24 29 26 23 18 15 18 21 18 20 27 25 21 21 22 22
43 42 40 39 39 39 37 34 29 33 29 33 30 34 34 31 30 32 31 27 26 25 27 32 31 31 29 23 25 24 24 19 23 22 22 21 19 18 25 24 24 21 21 23
44 42 41 40 38 38 31 31 29 31 28 30 29 30 31 30 30 29 30 28 30 33 34 32 32 31 31 31 30 24 26 16 21 21 27 24 20 20 22 25 26 27 25 26
44 43 42 40 38 34 32 34 35 31 28 27 25 27 25 28 32 31 33 34 35 34 36 37 37 35 34 33 33 29 24 24 21 16 22 23 22 24 23 24 25 22 18 19
44 44 43 41 39 34 32 33 35 29 23 27 26 26 28 27 29 31 33 36 35 39 43 40 40 39 38 36 35 34 27 23 24 16 24 16 20 26 23 23 23 24 23 24
44 44 44 42 41 38 30 33 33 32 26 28 25 27 29 32 33 33 35 39 41 38 40 35 34 33 33 32 32 32 32 27 21 15 19 20 21 25 24 20 19 24 24 28
45 44 44 43 41 40 33 30 34 33 26 23 30 27 31 31 30 30 35 38 36 41 38 35 31 28 28 27 27 30 31 29 22 24 12 11 19 22 27 24 20 26 28 30
45 45 44 43 42 41 32 30 34 32 29 31 30 29 30 32 31 31 34 32 33 40 35 33 32 30 31 27 24 25 29 28 23 24 18 23 25 26 26 19 20 28 31 32
45 45 45 44 42 41 35 31 33 30 30 30 31 30 29 30 33 30 32 29 35 34 33 33 33 31 31 30 27 24 25 26 25 25 22 21 28 24 22 25 28 32 33 33
45 45 44 44 43 42 36 29 34 36 29 26 33 33 32 30 29 31 33 33 34 34 31 32 33 31 33 33 28 30 25 25 25 26 24 30 30 25 23 28 28 33 33 34
45 45 44 44 43 42 37 32 34 32 28 26 26 23 24 33 32 33 28 33 36 36 36 31 31 30 37 30 33 31 30 32 28 27 27 29 32 32 29 29 29 33 35 34
44 44 44 44 44 43 38 34 35 32 30 26 24 30 29 33 33 34 34 32 37 37 37 32 29 28 35 34 36 36 34 33 29 29 29 31 31 32 32 33 35 34 35 33
44 44 44 44 43 42 39 38 36 34 28 24 25 28 26 26 27 27 31 33 33 34 33 31 28 33 34 35 36 35 36 35 31 30 35 35 34 35 35 33 33 34 33 32
44 44 44 43 42 40 35 27 32 38 35 28 22 25 26 26 27 28 29 32 34 34 33 32 34 36 31 30 30 36 37 36 34 34 35 35 35 36 37 35 35 34 33 32
44 43 43 42 41 34 27 24 33 38 35 30 24 20 25 29 26 23 24 33 35 34 33 33 32 33 34 30 29 32 32 32 33 30 36 32 34 33 35 36 35 35 33 32
43 42 42 42 39 35 32 34 39 36 30 30 23 20 22 27 24 20 31 29 34 33 34 34 32 31 31 27 27 27 25 26 29 31 36 36 36 35 35 35 34 32 31 30
41 40 39 36 32 29 29 35 37 36 32 27 26 21 14 30 28 30 31 32 26 31 30 30 30 28 27 29 30 31 33 30 28 34 36 36 33 34 35 34 32 31 30 28
38 31 25 25 30 34 35 33 28 31 31 31 24 26 23 22 25 24 29 30 25 26 30 32 29 26 26 25 30 35 35 35 35 35 36 37 37 36 35 33 32 31 29 28
29 26 25 30 37 32 30 25 24 23 23 26 26 22 18 20 14 15 30 27 29 24 26 28 27 26 27 28 28 27 27 33 35 37 36 36 35 34 35 33 33 32 30 28
29 31 34 34 29 25 21 20 22 20 17 21 23 23 22 18 24 23 30 24 28 23 30 28 23 28 34 36 33 30 29 28 28 31 33 34 34 35 35 35 32 31 29 27
34 29 28 24 24 18 16 13 17 19 23 24 25 23 21 22 26 23 26 23 21 29 28 25 28 34 36 36 36 37 37 37 38 38 38 37 37 37 36 34 32 30 28 26
22 21 19 17 16 18 17 16 15 20 24 25 25 23 23 25 23 20 18 20 29 20 23 25 30 32 34 35 36 36 35 35 34 35 35 36 38 38 37 33 30 28 27 25
21 19 13 18 19 20 24 23 23 24 26 27 27 25 27 26 22 22 21 20 22 22 23 25 30 33 32 33 34 35 34 34 34 34 34 34 35 37 36 32 30 28 27 25
25 25 22 23 23 22 23 23 23 27 28 30 28 25 23 23 24 22 21 21 19 16 18 25 29 31 30 31 34 35 35 34 33 32 32 32 34 35 34 31 29 28 27 26
23 21 26 25 24 22 23 25 27 32 27 21 25 24 22 27 24 22 25 21 15 18 23 26 27 28 28 30 35 35 35 33 32 30 30 31 33 31 30 28 28 27 27 25
Wind_Speed
11 7 5 7 13 18 6 2 2 4 4 2 2 5 4 4 4 2 1 3 5 2 8 6 4 5 13 13 17 19 12 8 12 11 2 4 5 9 10 9 7 3 3 8
12 8 4 4 8 12 3 1 3 4 3 4 4 4 2 3 4 2 3 3 4 5 4 6 8 3 7 7 13 17 12 5 8 1 3 1 6 6 6 7 4 10 10 9
13 10 5 3 4 7 2 1 3 2 2 1 2 1 3 4 6 8 8 9 11 7 3 5 10 11 6 8 3 3 14 9 16 26 15 7 7 9 8 10 11 8 13 13
16 13 8 5 2 5 2 1 2 0 3 2 1 2 1 1 3 3 5 3 14 11 7 5 6 5 8 4 9 1 5 10 9 10 12 13 13 16 15 16 14 14 16 15
18 15 11 7 2 3 2 2 2 3 1 2 1 2 2 3 4 4 4 3 15 13 8 12 6 5 3 2 9 6 4 5 5 9 10 13 12 13 15 15 4 10 6 12
19 17 14 9 3 3 2 1 1 2 2 2 2 2 3 3 8 4 5 8 8 8 4 13 15 8 9 5 5 5 5 6 6 9 5 5 11 18 15 9 9 10 15 18
21 18 15 11 7 3 3 1 1 3 2 1 2 3 4 6 6 4 11 10 4 3 16 13 7 9 15 15 19 11 5 2 4 4 4 21 9 8 16 21 19 19 7 10
22 19 17 15 12 8 2 1 2 3 2 0 2 7 3 5 6 3 6 4 5 18 7 4 5 3 5 19 17 15 15 7 5 8 12 6 4 6 9 14 22 21 21 10
23 21 20 18 14 10 4 1 1 3 4 4 1 2 2 2 5 6 3 7 13 7 2 2 6 10 8 7 6 12 14 7 7 6 7 12 10 10 4 5 15 11 16 22
25 23 20 19 17 14 5 2 2 4 3 3 0 2 0 4 3 4 3 8 10 9 0 5 6 10 6 11 13 11 6 5 23 10 9 6 11 7 7 11 10 11 20 26
25 23 22 21 19 16 6 2 2 4 3 6 3 1 2 1 2 2 5 5 4 5 3 6 5 4 7 10 12 9 19 14 10 7 11 15 6 2 8 5 3 10 16 20
26 24 22 21 20 18 7 3 0 4 2 5 2 7 10 10 13 2 3 1 1 1 3 6 4 5 3 9 16 7 13 13 14 13 10 5 4 6 5 7 6 9 16 16
26 24 22 21 20 19 8 5 4 4 1 7 4 14 15 13 17 15 6 3 4 4 4 2 5 6 4 8 8 8 3 3 8 1 6 12 13 7 6 10 9 13 17 26
26 24 23 21 20 20 10 5 4 5 3 3 6 3 5 1 5 11 15 14 2 7 4 3 5 6 7 7 8 7 5 7 5 7 12 11 9 5 8 6 8 13 18 21
26 24 23 21 20 18 9 4 2 3 3 2 8 14 18 17 17 18 18 17 13 8 7 5 6 5 5 4 12 9 6 3 3 4 6 7 8 13 6 14 19 23 26 20
27 24 23 21 18 18 7 1 4 8 5 2 6 5 10 11 9 11 12 16 11 9 6 6 5 5 5 5 9 11 5 9 7 4 15 14 16 12 4 6 14 25 27 28
27 24 22 22 23 11 3 4 1 10 7 0 6 8 6 6 6 6 8 10 7 9 7 7 6 4 5 3 9 9 19 17 17 20 12 7 4 8 14 5 6 5 15 19
27 24 23 24 16 6 2 1 9 8 4 3 4 7 7 2 2 4 8 10 9 8 6 4 7 7 9 11 20 18 26 28 22 18 15 17 9 11 11 9 21 17 19 23
30 27 26 11 3 4 3 3 3 4 2 3 5 4 4 9 6 3 2 6 9 5 11 9 8 9 11 16 20 22 21 16 15 11 8 13 12 10 4 12 17 23 19 22
34 15 5 5 7 5 8 2 3 2 3 5 6 3 6 5 7 5 6 3 6 4 9 6 9 21 24 20 18 18 18 18 16 14 14 10 11 11 5 19 22 24 27 24
6 5 4 2 12 4 2 4 5 5 4 5 6 16 17 5 5 6 3 3 5 4 7 14 6 6 16 25 35 37 32 27 20 16 17 15 15 17 9 10 19 19 23 24
13 14 11 5 3 3 4 5 3 6 7 5 8 10 11 5 8 6 5 4 3 7 9 7 4 5 7 18 15 24 20 20 23 17 20 21 22 22 16 15 22 23 20 22
7 6 5 5 3 5 7 10 6 6 6 8 9 9 8 6 9 6 4 4 10 7 6 6 3 8 14 17 16 17 15 10 7 10 18 23 23 17 16 18 17 22 24 23
4 6 8 8 6 9 10 11 8 10 5 8 6 5 10 6 8 7 5 7 3 3 5 1 9 14 14 12 12 13 16 14 14 13 14 17 17 19 17 22 26 28 29 28
5 6 8 12 9 6 4 10 6 10 6 5 3 5 7 4 5 6 4 3 5 3 5 9 15 15 15 16 16 15 15 16 17 17 18 19 18 16 19 21 24 23 25 28
4 3 3 4 4 7 5 12 16 9 6 9 3 3 4 6 4 4 8 4 1 4 5 8 10 14 14 15 15 15 14 17 17 17 19 23 20 15 23 20 22 24 28 31
4 5 6 3 1 5 6 3 5 4 5 5 5 6 7 4 3 5 1 2 8 11 10 10 12 15 19 16 16 15 16 19 21 19 20 22 15 9 19 24 18 23 21 21
Wind_Direction
214 234 275 327 343 342 41 14 213 347 5 157 116 190 196 309 306 69 294 270 244 273 355 312 279 240 225 219 188 201 198 181 220 205 277 241 189 192 175 209 219 201 186 245
208 216 226 315 351 17 4 50 289 353 70 206 221 276 274 280 306 36 296 247 70 33 321 311 297 290 312 4 190 187 180 200 203 255 297 245 204 189 156 124 120 213 227 248
202 208 208 261 346 8 63 88 195 311 64 38 183 204 272 255 294 268 250 256 300 304 273 228 283 303 311 346 273 149 156 169 202 213 222 160 196 201 181 187 232 222 230 249
196 200 199 227 309 355 86 67 167 6 190 150 133 198 282 244 313 309 332 273 236 235 259 271 272 299 310 308 353 14 180 203 194 211 197 185 209 210 191 207 218 221 253 228
194 195 193 205 240 23 89 121 127 30 70 308 212 186 223 259 299 244 303 13 328 319 252 228 268 317 360 2 331 345 340 192 173 208 200 200 211 215 208 219 203 236 239 244
191 191 190 193 179 72 99 352 331 137 350 87 165 97 341 28 1 285 302 12 329 330 329 319 294 300 294 274 326 316 333 154 157 228 217 212 238 221 209 206 205 196 232 240
187 187 185 185 174 136 128 122 109 110 189 209 148 348 354 336 332 288 305 318 294 330 322 306 274 269 273 277 277 238 286 164 162 204 143 235 238 235 213 216 226 210 213 205
186 184 183 182 177 161 122 133 126 116 187 245 304 2 353 328 323 326 294 330 341 315 305 322 284 246 258 266 259 251 216 202 190 190 214 283 284 224 194 195 243 219 223 202
183 184 183 178 176 161 120 141 115 109 130 225 328 345 346 342 338 340 305 329 332 334 165 121 246 237 203 230 214 211 190 219 227 173 214 224 218 224 188 126 258 199 194 176
182 183 179 173 175 168 138 155 143 103 160 267 90 149 1 354 328 307 334 340 341 352 63 192 239 248 228 231 203 193 173 207 221 209 229 263 254 219 134 210 246 193 178 173
179 179 177 175 174 169 147 167 194 131 173 266 227 228 195 6 354 310 327 354 29 334 255 208 208 254 264 246 215 202 192 188 204 192 223 246 215 103 188 230 193 181 177 175
176 178 176 175 174 169 136 139 167 138 171 245 243 219 244 227 231 264 290 222 77 296 344 352 295 247 264 350 248 200 229 206 197 199 220 224 220 229 205 195 188 184 172 165
174 175 175 174 174 168 143 137 141 98 325 283 262 255 257 230 228 202 212 250 201 133 131 359 297 263 253 209 244 293 243 246 216 134 256 239 231 229 234 195 207 187 175 160
168 171 171 172 171 172 147 143 155 103 108 284 289 318 298 228 184 203 214 231 315 122 167 202 248 275 10 320 282 265 287 331 237 248 254 278 260 260 260 212 158 153 147 157
164 167 167 168 172 172 120 110 189 159 155 264 289 304 277 260 239 233 210 212 213 216 218 207 230 256 259 270 272 243 209 248 245 180 33 330 297 309 262 195 178 166 154 150
159 163 162 160 153 124 103 310 247 197 146 310 302 286 273 258 219 216 210 202 200 207 199 220 226 231 226 243 271 277 292 66 347 315 321 296 289 324 33 230 191 167 164 161
152 156 153 147 141 128 128 169 177 167 134 229 300 285 265 269 220 203 194 191 189 198 205 216 225 234 166 255 249 245 285 295 295 307 319 302 306 329 323 186 146 171 141 151
143 145 139 139 135 87 45 51 100 133 151 183 258 275 305 344 279 216 182 175 189 197 210 208 192 204 212 247 247 264 256 266 282 279 269 259 278 326 339 149 142 152 154 149
136 126 113 100 99 146 206 168 74 45 179 222 206 234 276 346 10 335 261 188 204 215 210 202 195 212 226 234 238 244 247 229 242 273 289 298 304 305 290 173 165 161 169 160
122 112 89 144 187 153 108 51 169 278 228 229 228 207 257 6 4 353 328 267 216 226 222 170 224 239 244 251 262 257 262 255 254 262 279 297 297 285 247 204 192 188 176 166
117 124 94 119 140 99 78 169 192 206 240 221 220 211 240 226 260 280 249 272 223 223 210 189 231 257 248 241 241 243 241 245 249 249 258 258 266 276 259 215 202 188 177 182
150 117 109 104 125 89 157 205 198 212 234 215 200 222 210 222 183 195 254 236 246 241 159 201 234 255 325 344 285 264 265 263 264 263 269 267 258 259 261 227 199 178 165 156
99 81 115 145 160 183 198 195 204 214 212 205 197 204 185 205 212 188 227 245 239 339 221 198 198 349 351 348 355 360 15 358 309 286 278 261 252 242 235 223 173 155 153 154
109 135 149 201 193 222 200 204 198 218 214 191 212 199 191 212 178 195 209 230 289 245 283 356 9 343 331 338 347 347 347 348 339 326 316 312 291 255 217 192 169 161 161 161
140 142 199 208 215 227 210 229 250 246 211 174 262 220 182 238 220 190 218 241 248 229 347 340 309 313 325 333 338 343 339 341 338 332 320 315 310 281 225 185 175 168 155 155
126 197 199 224 195 252 251 251 254 243 225 151 188 229 197 206 230 185 209 221 60 299 282 273 289 292 313 328 324 322 327 330 328 325 322 315 306 254 206 177 165 162 160 159
191 233 227 208 183 237 244 242 273 203 123 183 157 218 204 137 221 210 105 109 252 253 271 293 305 306 309 313 319 317 321 325 329 329 329 318 307 182 161 161 154 145 146 144